Project,Study,Ord_Occ,Event_Num,Date_Time_UTC,Date_Time_PST,Lat_Dec,Lon_Dec,Sta_ID,Line,Sta,Depth,Pressure,Temp0,Temp1,Salt0,CorrSalt0,Salt1,CorrSalt1,O2ml/L,AveCorrO2ml/L,StaCorrO2ml/L,FluorV,AveEstChl,StaEstChl,ISUSV,AveEstNO3,StaEstNO3,SigThetaTS0,SigThetaTS1,BAT,XMiss,SPAR,PAR,BTL_Depth,BTL_Temp,BTL_Salt,BTL_O2ml/L,BTL_Chl,BTL_Pha,BTL_NO3
CalCOFI,0701JD,073,721,30-Jan-2007 1:18:56 AM,29-Jan-2007 5:18:56 PM,33.72066,-123.63268,076.7 090.0,076.7,090.0,515.000,519.339,5.6795,5.6841,34.2065,34.2052,34.2050,34.2051,0.48408,0.56,0.62,0.0247,,,1.7981,42.29,40.411,26.9709,26.9691,-9.990e-29,-9.990e-29,3.6559e+00,9.9990e+03,515,5.69 ,34.207,  .51,,,40.2
CalCOFI,0701JD,073,721,30-Jan-2007 1:18:57 AM,29-Jan-2007 5:18:57 PM,33.72066,-123.63268,076.7 090.0,076.7,090.0,514.000,518.330,5.6725,5.6776,34.2034,34.2021,34.2020,34.2021,0.48727,0.56,0.63,0.0243,,,1.7922,42.12,40.229,26.9693,26.9675,-9.990e-29,-9.990e-29,3.8300e+00,9.9990e+03,,,,,,,
CalCOFI,0701JD,073,721,30-Jan-2007 1:19:47 AM,29-Jan-2007 5:19:47 PM,33.72055,-123.63268,076.7 090.0,076.7,090.0,513.000,517.320,5.6878,5.6891,34.2071,34.2058,34.2037,34.2038,0.47898,0.55,0.62,0.0246,,,1.8057,42.51,40.646,26.9704,26.9675,0.3973,90.5460,4.1461e+00,9.9990e+03,,,,,,,
CalCOFI,0701JD,073,721,30-Jan-2007 1:20:11 AM,29-Jan-2007 5:20:11 PM,33.72050,-123.63268,076.7 090.0,076.7,090.0,512.000,516.310,5.6891,5.6897,34.2043,34.2030,34.2033,34.2034,0.48007,0.55,0.62,0.0246,,,1.8048,42.49,40.618,26.9680,26.9671,0.3975,90.5409,3.9308e+00,9.9990e+03,,,,,,,
CalCOFI,0701JD,073,721,30-Jan-2007 1:20:12 AM,29-Jan-2007 5:20:12 PM,33.72050,-123.63268,076.7 090.0,076.7,090.0,511.000,515.301,5.6602,5.6592,34.1982,34.1969,34.1962,34.1963,0.48781,0.56,0.63,0.0248,,,1.7885,42.01,40.115,26.9666,26.9651,0.3975,90.5414,4.1001e+00,9.9990e+03,,,,,,,
CalCOFI,0701JD,073,721,30-Jan-2007 1:20:13 AM,29-Jan-2007 5:20:13 PM,33.72050,-123.63268,076.7 090.0,076.7,090.0,510.000,514.291,5.6158,5.6148,34.1873,34.1860,34.1860,34.1861,0.49439,0.57,0.63,0.0247,,,1.7564,41.07,39.125,26.9634,26.9624,0.3975,90.5403,4.2720e+00,9.9990e+03,,,,,,,
CalCOFI,0701JD,073,721,30-Jan-2007 1:20:14 AM,29-Jan-2007 5:20:14 PM,33.72050,-123.63268,076.7 090.0,076.7,090.0,509.000,513.281,5.6058,5.6073,34.1860,34.1847,34.1827,34.1828,0.50022,0.58,0.64,0.0244,,,1.7587,41.13,39.196,26.9635,26.9607,0.3976,90.5381,3.7751e+00,9.9990e+03,,,,,,,
CalCOFI,0701JD,073,721,30-Jan-2007 1:20:15 AM,29-Jan-2007 5:20:15 PM,33.72050,-123.63268,076.7 090.0,076.7,090.0,508.000,512.272,5.6252,5.6265,34.1877,34.1864,34.1842,34.1843,0.50493,0.58,0.65,0.0244,,,1.8002,42.35,40.476,26.9625,26.9596,0.3970,90.5525,4.1365e+00,9.9990e+03,,,,,,,
CalCOFI,0701JD,073,721,30-Jan-2007 1:20:17 AM,29-Jan-2007 5:20:17 PM,33.72050,-123.63268,076.7 090.0,076.7,090.0,507.000,511.262,5.6295,5.6303,34.1868,34.1855,34.1843,34.1844,0.50888,0.59,0.65,-9.990e-29,,,1.7916,42.10,40.211,26.9613,26.9592,0.3974,90.5424,3.8233e+00,9.9990e+03,,,,,,,
CalCOFI,0701JD,073,721,30-Jan-2007 1:20:18 AM,29-Jan-2007 5:20:18 PM,33.72050,-123.63268,076.7 090.0,076.7,090.0,506.000,510.252,5.6357,5.6369,34.1878,34.1865,34.1844,34.1845,0.51013,0.59,0.65,-9.990e-29,,,1.8038,42.46,40.587,26.9613,26.9585,0.3968,90.5568,3.8397e+00,9.9990e+03,,,,,,,
CalCOFI,0701JD,073,721,30-Jan-2007 1:20:19 AM,29-Jan-2007 5:20:19 PM,33.72050,-123.63268,076.7 090.0,076.7,090.0,505.000,509.243,5.6483,5.6492,34.1889,34.1876,34.1855,34.1856,0.51081,0.59,0.65,0.0249,,,1.7955,42.21,40.331,26.9606,26.9578,0.3969,90.5538,3.8397e+00,9.9990e+03,,,,,,,
CalCOFI,0701JD,073,721,30-Jan-2007 1:20:20 AM,29-Jan-2007 5:20:20 PM,33.72050,-123.63268,076.7 090.0,076.7,090.0,504.000,508.233,5.6572,5.6578,34.1896,34.1883,34.1864,34.1865,0.51175,0.59,0.66,0.0251,,,1.7830,41.85,39.946,26.9601,26.9575,0.3968,90.5563,3.7493e+00,9.9990e+03,,,,,,,
CalCOFI,0701JD,073,721,30-Jan-2007 1:20:21 AM,29-Jan-2007 5:20:21 PM,33.72050,-123.63268,076.7 090.0,076.7,090.0,503.000,507.224,5.6676,5.6683,34.1903,34.1890,34.1873,34.1874,0.51426,0.59,0.66,0.0243,,,1.7772,41.68,39.767,26.9594,26.9569,0.3971,90.5492,3.8400e+00,9.9990e+03,,,,,,,
CalCOFI,0701JD,073,721,30-Jan-2007 1:20:21 AM,29-Jan-2007 5:20:21 PM,33.72050,-123.63268,076.7 090.0,076.7,090.0,502.000,506.214,5.6730,5.6738,34.1904,34.1891,34.1873,34.1874,0.51746,0.60,0.66,0.0248,,,1.7865,41.95,40.053,26.9587,26.9563,0.3972,90.5479,4.2239e+00,9.9990e+03,,,,,,,
CalCOFI,0701JD,073,721,30-Jan-2007 1:20:22 AM,29-Jan-2007 5:20:22 PM,33.72050,-123.63268,076.7 090.0,076.7,090.0,501.000,505.204,5.6854,5.6861,34.1880,34.1867,34.1851,34.1852,0.52252,0.60,0.67,0.0246,,,1.8272,43.15,41.309,26.9554,26.9530,0.3973,90.5448,3.7591e+00,9.9990e+03,,,,,,,
CalCOFI,0701JD,073,721,30-Jan-2007 1:20:23 AM,29-Jan-2007 5:20:23 PM,33.72050,-123.63268,076.7 090.0,076.7,090.0,500.000,504.195,5.6753,5.6762,34.1804,34.1791,34.1784,34.1785,0.52922,0.61,0.68,0.0238,,,1.8319,43.28,41.454,26.9506,26.9489,0.3974,90.5418,4.0027e+00,9.9990e+03,,,,,,,
CalCOFI,0701JD,073,721,30-Jan-2007 1:20:24 AM,29-Jan-2007 5:20:24 PM,33.72050,-123.63268,076.7 090.0,076.7,090.0,499.000,503.185,5.6731,5.6738,34.1784,34.1771,34.1756,34.1757,0.53324,0.62,0.68,0.0244,,,1.7967,42.25,40.368,26.9492,26.9470,0.3971,90.5505,3.8376e+00,9.9990e+03,,,,,,,
CalCOFI,0701JD,073,721,30-Jan-2007 1:20:25 AM,29-Jan-2007 5:20:25 PM,33.72050,-123.63268,076.7 090.0,076.7,090.0,498.000,502.176,5.6760,5.6768,34.1782,34.1769,34.1753,34.1754,0.53733,0.62,0.69,0.0245,,,1.7733,41.56,39.646,26.9487,26.9463,0.3971,90.5493,4.0903e+00,9.9990e+03,,,,,,,
CalCOFI,0701JD,073,721,30-Jan-2007 1:20:26 AM,29-Jan-2007 5:20:26 PM,33.72050,-123.63268,076.7 090.0,076.7,090.0,497.000,501.166,5.6798,5.6807,34.1783,34.1770,34.1753,34.1754,0.53876,0.62,0.69,0.0243,,,1.7732,41.56,39.643,26.9483,26.9459,0.3969,90.5559,4.1013e+00,9.9990e+03,,,,,,,
CalCOFI,0701JD,073,721,30-Jan-2007 1:20:27 AM,29-Jan-2007 5:20:27 PM,33.72050,-123.63268,076.7 090.0,076.7,090.0,496.000,500.156,5.6829,5.6837,34.1783,34.1770,34.1753,34.1754,0.54004,0.62,0.69,0.0245,,,1.8050,42.49,40.624,26.9479,26.9455,0.3969,90.5586,3.8447e+00,9.9990e+03,,,,,,,
CalCOFI,0701JD,073,721,30-Jan-2007 1:20:28 AM,29-Jan-2007 5:20:28 PM,33.72050,-123.63268,076.7 090.0,076.7,090.0,495.000,499.147,5.6984,5.6988,34.1800,34.1787,34.1764,34.1765,0.54116,0.63,0.69,0.0248,,,1.7703,41.47,39.554,26.9474,26.9445,0.3970,-9.990e-29,3.7340e+00,9.9990e+03,,,,,,,
CalCOFI,0701JD,073,721,30-Jan-2007 1:20:30 AM,29-Jan-2007 5:20:30 PM,33.72050,-123.63268,076.7 090.0,076.7,090.0,494.000,498.137,5.7237,5.7240,34.1814,34.1801,34.1781,34.1782,0.54088,0.63,0.69,0.0247,,,1.8064,42.53,40.667,26.9454,26.9428,0.3972,-9.990e-29,3.9113e+00,9.9990e+03,,,,,,,
CalCOFI,0701JD,073,721,30-Jan-2007 1:20:31 AM,29-Jan-2007 5:20:31 PM,33.72050,-123.63268,076.7 090.0,076.7,090.0,493.000,497.128,5.7437,5.7431,34.1832,34.1819,34.1796,34.1797,0.54036,0.62,0.69,0.0245,,,1.8176,42.86,41.013,26.9443,26.9416,0.3973,90.5414,4.2463e+00,9.9990e+03,,,,,,,
CalCOFI,0701JD,073,721,30-Jan-2007 1:20:32 AM,29-Jan-2007 5:20:32 PM,33.72050,-123.63268,076.7 090.0,076.7,090.0,492.000,496.118,5.7484,5.7488,34.1828,34.1815,34.1802,34.1803,0.54141,0.63,0.69,0.0247,,,1.7825,41.83,39.930,26.9434,26.9414,0.3974,90.5421,4.2052e+00,9.9990e+03,,,,,,,
CalCOFI,0701JD,073,721,30-Jan-2007 1:20:33 AM,29-Jan-2007 5:20:33 PM,33.72050,-123.63268,076.7 090.0,076.7,090.0,491.000,495.108,5.7528,5.7540,34.1834,34.1821,34.1806,34.1807,0.54018,0.62,0.69,0.0246,,,1.7865,41.95,40.053,26.9434,26.9411,0.3977,90.5355,3.8366e+00,9.9990e+03,,,,,,,
CalCOFI,0701JD,073,721,30-Jan-2007 1:20:34 AM,29-Jan-2007 5:20:34 PM,33.72050,-123.63268,076.7 090.0,076.7,090.0,490.000,494.099,5.7595,5.7602,34.1831,34.1818,34.1805,34.1806,0.54096,0.63,0.69,0.0243,,,1.7748,41.61,39.693,26.9424,26.9402,0.3974,90.5427,3.7373e+00,9.9990e+03,,,,,,,
CalCOFI,0701JD,073,721,30-Jan-2007 1:20:34 AM,29-Jan-2007 5:20:34 PM,33.72050,-123.63268,076.7 090.0,076.7,090.0,489.000,493.089,5.7618,5.7627,34.1831,34.1818,34.1804,34.1805,0.54118,0.63,0.69,0.0245,,,1.7741,41.59,39.671,26.9420,26.9398,0.3973,90.5454,4.4119e+00,9.9990e+03,,,,,,,
CalCOFI,0701JD,073,721,30-Jan-2007 1:20:35 AM,29-Jan-2007 5:20:35 PM,33.72050,-123.63268,076.7 090.0,076.7,090.0,488.000,492.080,5.7687,5.7697,34.1828,34.1815,34.1802,34.1803,0.54245,0.63,0.69,0.0245,,,1.7894,42.04,40.143,26.9409,26.9388,0.3973,90.5445,3.9413e+00,9.9990e+03,,,,,,,
CalCOFI,0701JD,073,721,30-Jan-2007 1:20:36 AM,29-Jan-2007 5:20:36 PM,33.72050,-123.63268,076.7 090.0,076.7,090.0,487.000,491.070,5.7707,5.7713,34.1824,34.1811,34.1797,34.1798,0.54371,0.63,0.69,0.0247,,,1.7572,41.09,39.150,26.9404,26.9381,0.3973,90.5454,3.6888e+00,9.9990e+03,,,,,,,
CalCOFI,0701JD,073,721,30-Jan-2007 1:20:37 AM,29-Jan-2007 5:20:37 PM,33.72050,-123.63268,076.7 090.0,076.7,090.0,486.000,490.061,5.7846,5.7845,34.1829,34.1816,34.1797,34.1798,0.54498,0.63,0.70,0.0247,,,1.7893,42.03,40.140,26.9390,26.9366,0.3975,90.5393,3.9145e+00,9.9990e+03,,,,,,,
CalCOFI,0701JD,073,721,30-Jan-2007 1:20:38 AM,29-Jan-2007 5:20:38 PM,33.72050,-123.63268,076.7 090.0,076.7,090.0,485.000,489.051,5.7935,5.7943,34.1820,34.1807,34.1793,34.1794,0.54624,0.63,0.70,0.0248,,,1.7912,42.09,40.198,26.9373,26.9350,0.3977,90.5355,4.3039e+00,9.9990e+03,,,,,,,
CalCOFI,0701JD,073,721,30-Jan-2007 1:20:39 AM,29-Jan-2007 5:20:39 PM,33.72050,-123.63268,076.7 090.0,076.7,090.0,484.000,488.042,5.7996,5.8004,34.1818,34.1805,34.1792,34.1793,0.54841,0.63,0.70,0.0250,,,1.7709,41.49,39.572,26.9363,26.9342,0.3976,90.5370,4.6425e+00,9.9990e+03,,,,,,,
CalCOFI,0701JD,073,721,30-Jan-2007 1:20:40 AM,29-Jan-2007 5:20:40 PM,33.72050,-123.63268,076.7 090.0,076.7,090.0,483.000,487.032,5.8040,5.8048,34.1819,34.1806,34.1792,34.1793,0.55039,0.64,0.70,0.0245,,,1.7738,41.58,39.662,26.9359,26.9336,0.3977,90.5351,3.9844e+00,9.9990e+03,,,,,,,
CalCOFI,0701JD,073,721,30-Jan-2007 1:20:41 AM,29-Jan-2007 5:20:41 PM,33.72050,-123.63268,076.7 090.0,076.7,090.0,482.000,486.022,5.8102,5.8108,34.1814,34.1801,34.1785,34.1786,0.55301,0.64,0.71,0.0246,,,1.7768,41.67,39.754,26.9346,26.9323,0.3977,90.5345,3.6824e+00,9.9990e+03,,,,,,,
CalCOFI,0701JD,073,721,30-Jan-2007 1:20:42 AM,29-Jan-2007 5:20:42 PM,33.72050,-123.63268,076.7 090.0,076.7,090.0,481.000,485.013,5.8217,5.8223,34.1808,34.1795,34.1780,34.1781,0.55605,0.64,0.71,0.0246,,,1.7703,41.47,39.554,26.9328,26.9305,0.3975,90.5416,4.3080e+00,9.9990e+03,,,,,,,
CalCOFI,0701JD,073,721,30-Jan-2007 1:20:44 AM,29-Jan-2007 5:20:44 PM,33.72050,-123.63268,076.7 090.0,076.7,090.0,480.000,484.003,5.8439,5.8441,34.1806,34.1793,34.1773,34.1774,0.55794,0.65,0.71,0.0246,,,1.7764,41.65,39.742,26.9298,26.9272,0.3973,90.5461,3.9738e+00,9.9990e+03,,,,,,,
CalCOFI,0701JD,073,721,30-Jan-2007 1:20:45 AM,29-Jan-2007 5:20:45 PM,33.72050,-123.63268,076.7 090.0,076.7,090.0,479.000,482.994,5.8577,5.8577,34.1809,34.1796,34.1776,34.1777,0.56090,0.65,0.72,0.0246,,,1.7506,40.90,38.946,26.9284,26.9258,0.3974,90.5417,4.3108e+00,9.9990e+03,,,,,,,
CalCOFI,0701JD,073,721,30-Jan-2007 1:20:46 AM,29-Jan-2007 5:20:46 PM,33.72050,-123.63268,076.7 090.0,076.7,090.0,478.000,481.984,5.8762,5.8769,34.1809,34.1796,34.1780,34.1781,0.56376,0.65,0.72,0.0247,,,1.7676,41.40,39.471,26.9261,26.9237,0.3976,90.5384,4.2553e+00,9.9990e+03,,,,,,,
CalCOFI,0701JD,073,721,30-Jan-2007 1:20:47 AM,29-Jan-2007 5:20:47 PM,33.72050,-123.63268,076.7 090.0,076.7,090.0,477.000,480.975,5.8805,5.8809,34.1803,34.1790,34.1779,34.1780,0.56688,0.66,0.72,0.0245,,,1.7797,41.75,39.844,26.9250,26.9231,0.3975,90.5392,4.0290e+00,9.9990e+03,,,,,,,
CalCOFI,0701JD,073,721,30-Jan-2007 1:20:48 AM,29-Jan-2007 5:20:48 PM,33.72050,-123.63268,076.7 090.0,076.7,090.0,476.000,479.965,5.8818,5.8825,34.1793,34.1780,34.1770,34.1771,0.56965,0.66,0.73,0.0244,,,1.7788,41.72,39.816,26.9241,26.9222,0.3980,90.5285,3.7357e+00,9.9990e+03,,,,,,,
CalCOFI,0701JD,073,721,30-Jan-2007 1:20:48 AM,29-Jan-2007 5:20:48 PM,33.72050,-123.63268,076.7 090.0,076.7,090.0,475.000,478.956,5.8858,5.8864,34.1779,34.1766,34.1755,34.1756,0.57216,0.66,0.73,0.0249,,,1.7847,41.90,39.998,26.9225,26.9205,0.3976,90.5374,4.0422e+00,9.9990e+03,,,,,,,
CalCOFI,0701JD,073,721,30-Jan-2007 1:20:49 AM,29-Jan-2007 5:20:49 PM,33.72050,-123.63268,076.7 090.0,076.7,090.0,474.000,477.946,5.8904,5.8911,34.1773,34.1760,34.1748,34.1749,0.57344,0.66,0.73,0.0243,,,1.7642,41.30,39.366,26.9214,26.9194,0.3979,90.5312,3.7499e+00,9.9990e+03,,,,,,,
CalCOFI,0701JD,073,721,30-Jan-2007 1:20:50 AM,29-Jan-2007 5:20:50 PM,33.72050,-123.63268,076.7 090.0,076.7,090.0,473.000,476.937,5.9056,5.9062,34.1786,34.1773,34.1756,34.1757,0.57584,0.67,0.73,0.0243,,,1.7541,41.00,39.054,26.9206,26.9181,0.3979,90.5308,3.9226e+00,9.9990e+03,,,,,,,
CalCOFI,0701JD,073,721,30-Jan-2007 1:20:51 AM,29-Jan-2007 5:20:51 PM,33.72050,-123.63268,076.7 090.0,076.7,090.0,472.000,475.927,5.9216,5.9221,34.1798,34.1785,34.1768,34.1769,0.57565,0.67,0.73,0.0246,,,1.7649,41.32,39.387,26.9195,26.9171,0.3976,90.5392,3.8385e+00,9.9990e+03,,,,,,,
CalCOFI,0701JD,073,721,30-Jan-2007 1:20:52 AM,29-Jan-2007 5:20:52 PM,33.72050,-123.63268,076.7 090.0,076.7,090.0,471.000,474.918,5.9331,5.9340,34.1806,34.1793,34.1780,34.1781,0.57602,0.67,0.73,0.0245,,,1.7659,41.35,39.418,26.9187,26.9165,0.3975,90.5395,3.9163e+00,9.9990e+03,,,,,,,
CalCOFI,0701JD,073,721,30-Jan-2007 1:20:53 AM,29-Jan-2007 5:20:53 PM,33.72050,-123.63268,076.7 090.0,076.7,090.0,470.000,473.908,5.9420,5.9427,34.1815,34.1802,34.1789,34.1790,0.57674,0.67,0.73,0.0242,,,1.7388,40.55,38.582,26.9183,26.9161,0.3975,90.5409,3.9872e+00,9.9990e+03,,,,,,,
CalCOFI,0701JD,073,721,30-Jan-2007 1:20:54 AM,29-Jan-2007 5:20:54 PM,33.72050,-123.63268,076.7 090.0,076.7,090.0,469.000,472.899,5.9392,5.9399,34.1800,34.1787,34.1779,34.1780,0.57896,0.67,0.74,0.0241,,,1.7602,41.18,39.242,26.9174,26.9157,0.3975,90.5400,4.0866e+00,9.9990e+03,,,,,,,
CalCOFI,0701JD,073,721,30-Jan-2007 1:20:56 AM,29-Jan-2007 5:20:56 PM,33.72050,-123.63268,076.7 090.0,076.7,090.0,468.000,471.890,5.9327,5.9334,34.1778,34.1765,34.1757,34.1758,0.58343,0.68,0.74,0.0247,,,1.7464,40.77,38.817,26.9165,26.9147,0.3977,90.5359,3.9613e+00,9.9990e+03,,,,,,,
CalCOFI,0701JD,073,721,30-Jan-2007 1:20:57 AM,29-Jan-2007 5:20:57 PM,33.72050,-123.63268,076.7 090.0,076.7,090.0,467.000,470.880,5.9371,5.9383,34.1763,34.1750,34.1733,34.1734,0.59035,0.69,0.75,0.0246,,,1.7392,40.56,38.595,26.9148,26.9122,0.3977,90.5361,3.6825e+00,9.9990e+03,,,,,,,
CalCOFI,0701JD,073,721,30-Jan-2007 1:20:58 AM,29-Jan-2007 5:20:58 PM,33.72050,-123.63268,076.7 090.0,076.7,090.0,466.000,469.871,5.9479,5.9487,34.1742,34.1729,34.1723,34.1724,0.59949,0.70,0.76,0.0248,,,1.7582,41.12,39.181,26.9117,26.9101,0.3976,90.5380,4.3600e+00,9.9990e+03,,,,,,,
CalCOFI,0701JD,073,721,30-Jan-2007 1:20:59 AM,29-Jan-2007 5:20:59 PM,33.72050,-123.63268,076.7 090.0,076.7,090.0,465.000,468.861,5.9329,5.9338,34.1668,34.1655,34.1655,34.1656,0.60863,0.71,0.77,0.0246,,,1.7646,41.31,39.378,26.9077,26.9066,0.3979,90.5304,4.2069e+00,9.9990e+03,,,,,,,
CalCOFI,0701JD,073,721,30-Jan-2007 1:21:00 AM,29-Jan-2007 5:21:00 PM,33.72050,-123.63268,076.7 090.0,076.7,090.0,464.000,467.852,5.9267,5.9274,34.1623,34.1610,34.1604,34.1605,0.61692,0.72,0.78,0.0243,,,1.7511,40.91,38.962,26.9050,26.9034,0.3979,90.5318,3.5640e+00,9.9990e+03,,,,,,,
CalCOFI,0701JD,073,721,30-Jan-2007 1:21:01 AM,29-Jan-2007 5:21:01 PM,33.72050,-123.63268,076.7 090.0,076.7,090.0,463.000,466.842,5.9319,5.9325,34.1607,34.1594,34.1581,34.1582,0.62330,0.73,0.79,0.0240,,,1.7247,40.14,38.148,26.9031,26.9009,0.3979,90.5308,4.0423e+00,9.9990e+03,,,,,,,
CalCOFI,0701JD,073,721,30-Jan-2007 1:21:01 AM,29-Jan-2007 5:21:01 PM,33.72050,-123.63268,076.7 090.0,076.7,090.0,462.000,465.833,5.9417,5.9423,34.1602,34.1589,34.1579,34.1580,0.62807,0.73,0.80,0.0243,,,1.7214,40.04,38.046,26.9014,26.8995,0.3974,90.5434,4.1144e+00,9.9990e+03,,,,,,,
CalCOFI,0701JD,073,721,30-Jan-2007 1:21:02 AM,29-Jan-2007 5:21:02 PM,33.72050,-123.63268,076.7 090.0,076.7,090.0,461.000,464.823,5.9452,5.9460,34.1603,34.1590,34.1580,34.1581,0.63312,0.74,0.80,0.0244,,,1.7207,40.02,38.024,26.9011,26.8991,0.3976,90.5381,3.9375e+00,9.9990e+03,,,,,,,
CalCOFI,0701JD,073,721,30-Jan-2007 1:21:03 AM,29-Jan-2007 5:21:03 PM,33.72050,-123.63268,076.7 090.0,076.7,090.0,460.000,463.814,5.9540,5.9556,34.1614,34.1601,34.1585,34.1586,0.63764,0.74,0.81,0.0242,,,1.7207,40.02,38.024,26.9008,26.8983,0.3974,90.5429,3.9357e+00,9.9990e+03,,,,,,,
CalCOFI,0701JD,073,721,30-Jan-2007 1:21:04 AM,29-Jan-2007 5:21:04 PM,33.72050,-123.63268,076.7 090.0,076.7,090.0,459.000,462.805,5.9665,5.9672,34.1609,34.1596,34.1588,34.1589,0.64051,0.75,0.81,0.0246,,,1.7709,41.49,39.572,26.8988,26.8971,0.3973,90.5445,4.0212e+00,9.9990e+03,,,,,,,
CalCOFI,0701JD,073,721,30-Jan-2007 1:21:05 AM,29-Jan-2007 5:21:05 PM,33.72050,-123.63268,076.7 090.0,076.7,090.0,458.000,461.795,5.9577,5.9586,34.1577,34.1564,34.1557,34.1558,0.64430,0.75,0.82,0.0241,,,1.7759,41.64,39.727,26.8974,26.8957,0.3978,90.5343,4.2764e+00,9.9990e+03,,,,,,,
CalCOFI,0701JD,073,721,30-Jan-2007 1:21:07 AM,29-Jan-2007 5:21:07 PM,33.72050,-123.63268,076.7 090.0,076.7,090.0,457.000,460.786,5.9585,5.9594,34.1570,34.1557,34.1548,34.1549,0.65023,0.76,0.82,0.0244,,,1.7319,40.35,38.370,26.8967,26.8948,0.3983,90.5217,4.1558e+00,9.9990e+03,,,,,,,
CalCOFI,0701JD,073,721,30-Jan-2007 1:21:08 AM,29-Jan-2007 5:21:08 PM,33.72050,-123.63268,076.7 090.0,076.7,090.0,456.000,459.776,5.9592,5.9617,34.1572,34.1559,34.1542,34.1543,0.65518,0.76,0.83,-9.990e-29,,,1.7749,41.61,39.696,26.8968,26.8941,0.3984,90.5203,3.5528e+00,9.9990e+03,,,,,,,
CalCOFI,0701JD,073,721,30-Jan-2007 1:21:09 AM,29-Jan-2007 5:21:09 PM,33.72050,-123.63268,076.7 090.0,076.7,090.0,455.000,458.767,5.9591,5.9599,34.1553,34.1540,34.1533,34.1534,0.65872,0.77,0.83,-9.990e-29,,,1.7754,41.62,39.711,26.8953,26.8936,0.3977,90.5351,4.4923e+00,9.9990e+03,,,,,,,
CalCOFI,0701JD,073,721,30-Jan-2007 1:21:10 AM,29-Jan-2007 5:21:10 PM,33.72050,-123.63268,076.7 090.0,076.7,090.0,454.000,457.758,5.9574,5.9580,34.1547,34.1534,34.1526,34.1527,0.66302,0.77,0.84,-9.990e-29,,,1.7710,41.50,39.575,26.8950,26.8933,0.3977,90.5353,4.2575e+00,9.9990e+03,,,,,,,
CalCOFI,0701JD,073,721,30-Jan-2007 1:21:11 AM,29-Jan-2007 5:21:11 PM,33.72050,-123.63268,076.7 090.0,076.7,090.0,453.000,456.748,5.9542,5.9550,34.1528,34.1515,34.1510,34.1511,0.66629,0.78,0.84,0.0255,,,1.7488,40.84,38.891,26.8939,26.8924,0.3979,90.5304,4.0237e+00,9.9990e+03,,,,,,,
CalCOFI,0701JD,073,721,30-Jan-2007 1:21:12 AM,29-Jan-2007 5:21:12 PM,33.72050,-123.63268,076.7 090.0,076.7,090.0,452.000,455.739,5.9582,5.9589,34.1525,34.1512,34.1496,34.1497,0.66908,0.78,0.85,0.0246,,,1.7216,40.05,38.052,26.8931,26.8908,0.3977,90.5358,4.3630e+00,9.9990e+03,,,,,,,
CalCOFI,0701JD,073,721,30-Jan-2007 1:21:13 AM,29-Jan-2007 5:21:13 PM,33.72050,-123.63268,076.7 090.0,076.7,090.0,451.000,454.729,5.9796,5.9804,34.1540,34.1527,34.1509,34.1510,0.67055,0.78,0.85,0.0241,,,1.7569,41.08,39.141,26.8916,26.8891,0.3977,90.5355,3.7455e+00,9.9990e+03,,,,,,,
CalCOFI,0701JD,073,721,30-Jan-2007 1:21:14 AM,29-Jan-2007 5:21:14 PM,33.72050,-123.63268,076.7 090.0,076.7,090.0,450.000,453.720,6.0043,6.0049,34.1572,34.1559,34.1539,34.1540,0.67357,0.79,0.85,0.0249,,,1.7588,41.14,39.199,26.8910,26.8884,0.3976,90.5373,4.0697e+00,9.9990e+03,,,,,,,
CalCOFI,0701JD,073,721,30-Jan-2007 1:21:14 AM,29-Jan-2007 5:21:14 PM,33.72050,-123.63268,076.7 090.0,076.7,090.0,449.000,452.711,6.0139,6.0147,34.1552,34.1539,34.1536,34.1537,0.67672,0.79,0.86,0.0245,,,1.7215,40.04,38.049,26.8883,26.8869,0.3979,90.5300,3.9522e+00,9.9990e+03,,,,,,,
CalCOFI,0701JD,073,721,30-Jan-2007 1:21:15 AM,29-Jan-2007 5:21:15 PM,33.72050,-123.63268,076.7 090.0,076.7,090.0,448.000,451.701,6.0063,6.0069,34.1522,34.1509,34.1505,34.1506,0.67894,0.79,0.86,0.0246,,,1.7216,40.05,38.052,26.8869,26.8854,0.3984,90.5195,4.4362e+00,9.9990e+03,,,,,,,
CalCOFI,0701JD,073,721,30-Jan-2007 1:21:16 AM,29-Jan-2007 5:21:16 PM,33.72050,-123.63268,076.7 090.0,076.7,090.0,447.000,450.692,6.0036,6.0044,34.1509,34.1496,34.1490,34.1491,0.68304,0.80,0.86,0.0250,,,1.7266,40.19,38.206,26.8862,26.8846,0.3988,90.5097,3.8487e+00,9.9990e+03,,,,,,,
CalCOFI,0701JD,073,721,30-Jan-2007 1:21:17 AM,29-Jan-2007 5:21:17 PM,33.72050,-123.63268,076.7 090.0,076.7,090.0,446.000,449.683,6.0019,6.0026,34.1500,34.1487,34.1480,34.1481,0.68501,0.80,0.87,0.0242,,,1.7481,40.82,38.869,26.8856,26.8839,0.3986,90.5140,4.2355e+00,9.9990e+03,,,,,,,
CalCOFI,0701JD,073,721,30-Jan-2007 1:21:18 AM,29-Jan-2007 5:21:18 PM,33.72050,-123.63268,076.7 090.0,076.7,090.0,445.000,448.673,6.0017,6.0025,34.1497,34.1484,34.1476,34.1477,0.68884,0.81,0.87,0.0241,,,1.7578,41.11,39.168,26.8854,26.8836,0.3990,90.5050,3.8434e+00,9.9990e+03,,,,,,,
CalCOFI,0701JD,073,721,30-Jan-2007 1:21:20 AM,29-Jan-2007 5:21:20 PM,33.72050,-123.63268,076.7 090.0,076.7,090.0,444.000,447.664,6.0009,6.0014,34.1494,34.1481,34.1470,34.1471,0.69384,0.81,0.88,0.0242,,,1.7632,41.27,39.335,26.8852,26.8833,0.3983,90.5210,4.0180e+00,9.9990e+03,,,,,,,
CalCOFI,0701JD,073,721,30-Jan-2007 1:21:21 AM,29-Jan-2007 5:21:21 PM,33.72050,-123.63268,076.7 090.0,076.7,090.0,443.000,446.655,5.9982,5.9989,34.1476,34.1463,34.1456,34.1457,0.69945,0.82,0.88,0.0244,,,1.7724,41.54,39.619,26.8842,26.8825,0.3982,90.5241,3.8345e+00,9.9990e+03,,,,,,,
CalCOFI,0701JD,073,721,30-Jan-2007 1:21:22 AM,29-Jan-2007 5:21:22 PM,33.72050,-123.63268,076.7 090.0,076.7,090.0,442.000,445.645,6.0066,6.0079,34.1455,34.1442,34.1428,34.1429,0.70241,0.82,0.89,0.0246,,,1.7471,40.79,38.838,26.8814,26.8791,0.3997,90.4899,4.0921e+00,9.9990e+03,,,,,,,
CalCOFI,0701JD,073,721,30-Jan-2007 1:21:23 AM,29-Jan-2007 5:21:23 PM,33.72050,-123.63268,076.7 090.0,076.7,090.0,441.000,444.636,6.0231,6.0226,34.1467,34.1454,34.1440,34.1441,0.70587,0.83,0.89,0.0241,,,1.7627,41.25,39.319,26.8803,26.8782,0.3977,90.5344,4.1278e+00,9.9990e+03,,,,,,,
CalCOFI,0701JD,073,721,30-Jan-2007 1:21:24 AM,29-Jan-2007 5:21:24 PM,33.72050,-123.63268,076.7 090.0,076.7,090.0,440.000,443.627,6.0201,6.0207,34.1446,34.1433,34.1431,34.1432,0.70853,0.83,0.90,0.0246,,,1.7673,41.39,39.461,26.8790,26.8778,0.3982,90.5245,4.5071e+00,9.9990e+03,,,,,,,
CalCOFI,0701JD,073,721,30-Jan-2007 1:21:25 AM,29-Jan-2007 5:21:25 PM,33.72050,-123.63268,076.7 090.0,076.7,090.0,439.000,442.617,6.0190,6.0197,34.1444,34.1431,34.1422,34.1423,0.71168,0.83,0.90,0.0246,,,1.7388,40.55,38.582,26.8789,26.8772,0.3979,90.5297,3.6302e+00,9.9990e+03,,,,,,,
CalCOFI,0701JD,073,721,30-Jan-2007 1:21:26 AM,29-Jan-2007 5:21:26 PM,33.72050,-123.63268,076.7 090.0,076.7,090.0,438.000,441.608,6.0258,6.0267,34.1437,34.1424,34.1413,34.1414,0.71533,0.84,0.90,0.0245,,,1.7163,39.89,37.889,26.8775,26.8755,0.3979,90.5297,4.2233e+00,9.9990e+03,,,,,,,
CalCOFI,0701JD,073,721,30-Jan-2007 1:21:27 AM,29-Jan-2007 5:21:27 PM,33.72050,-123.63268,076.7 090.0,076.7,090.0,437.000,440.599,6.0351,6.0369,34.1439,34.1426,34.1416,34.1417,0.71839,0.84,0.91,0.0244,,,1.7139,39.82,37.815,26.8765,26.8745,0.3980,90.5278,3.8167e+00,9.9990e+03,,,,,,,
CalCOFI,0701JD,073,721,30-Jan-2007 1:21:36 AM,29-Jan-2007 5:21:36 PM,33.72050,-123.63268,076.7 090.0,076.7,090.0,436.000,439.589,6.0422,6.0398,34.1437,34.1424,34.1422,34.1423,0.72228,0.85,0.91,0.0247,,,1.7297,40.28,38.302,26.8755,26.8746,0.3983,90.5223,4.3159e+00,9.9990e+03,436,6.06 ,34.141,  .85,,,38.7
CalCOFI,0701JD,073,721,30-Jan-2007 1:22:38 AM,29-Jan-2007 5:22:38 PM,33.72050,-123.63268,076.7 090.0,076.7,090.0,435.000,438.580,6.0578,6.0608,34.1429,34.1416,34.1408,34.1409,0.73589,0.86,0.93,0.0244,,,1.7615,41.22,39.282,26.8728,26.8709,0.3986,90.5152,4.2204e+00,9.9990e+03,,,,,,,
CalCOFI,0701JD,073,721,30-Jan-2007 1:23:05 AM,29-Jan-2007 5:23:05 PM,33.72050,-123.63268,076.7 090.0,076.7,090.0,434.000,437.571,6.0610,6.0613,34.1423,34.1410,34.1408,34.1409,0.73615,0.86,0.93,0.0241,,,1.7117,39.75,37.747,26.8720,26.8708,0.3990,90.5063,4.4556e+00,9.9990e+03,,,,,,,
CalCOFI,0701JD,073,721,30-Jan-2007 1:23:05 AM,29-Jan-2007 5:23:05 PM,33.72050,-123.63268,076.7 090.0,076.7,090.0,433.000,436.562,6.0608,6.0613,34.1421,34.1408,34.1408,34.1409,0.73786,0.87,0.93,0.0246,,,1.7135,39.81,37.802,26.8718,26.8707,0.3989,90.5071,4.3184e+00,9.9990e+03,,,,,,,